Location: Blackwall
(51.5097°N, 0.0016°W)
Time: 00:30:46
(UTC+00:00)

ACS3 Solar Sail - Pass Details

Date: 15 May 2026
Orbit: 875 x 955 km, 97.2° (Epoch: 9 June)

Event Time Altitude Azimuth Distance (km) Brightness Sun altitude
Rises 23:42:21 0° 20° (NNE) 3,499 5.9 -19.4°
Reaches altitude 10° 23:45:14 10° 34° (NE) 2,547 4.7 -19.4°
Maximum altitude 23:49:48 25° 88° (E) 1,709 3.1 -19.4°
Enters shadow 23:52:27 18° 126° (SE) 2,023 3.1 -19.4°
